Weather History for KDNL - December, 2012

Change the Weather History Date:

Sunday, December 2, 2012

  Actual Average Record
Temperature  
Mean Temperature 64 °F -  
Max Temperature 74 °F 60 °F 75 °F (1998)
Min Temperature 54 °F 42 °F 30 °F (1999)
Degree Days  
Heating Degree Days 1    
Month to date heating degree days 4  
Growing Degree Days 14 (Base 50)    
Moisture  
Dew Point 52 °F    
Average Humidity 72    
Maximum Humidity 84    
Minimum Humidity 49    
Precipitation  
Precipitation T in - - ()
Month to date precipitation T  
Year to date precipitation 40.25  
Sea Level Pressure  
Sea Level Pressure 30.32 in    
Wind  
Wind Speed 2 mph (SE)    
Max Wind Speed 9 mph    
Max Gust Speed 13 mph    
Visibility 10 miles    
Events      
Averages and records for this station are not official NWS values.
T = Trace of Precipitation, MM = Missing Value Source: NWS Daily Summary

Daily Weather History Graph

Daily Weather History Graph

Search for Another Location

Airport or City:

Trip Planner

Search our weather history database for the weather conditions in past years. The results will help you decide how hot, cold, wet, or windy it might be!

Date:

Astronomy

Dec. 02, 2012 Rise Set
Actual Time 7:15 AM EST 5:20 PM EST
Civil Twilight 6:48 AM EST 5:47 PM EST
Nautical Twilight 6:17 AM EST 6:18 PM EST
Astronomical Twilight 5:47 AM EST 6:48 PM EST
Moon 9:01 PM EST (12/2) 10:08 AM EST (12/2)
Length of Visible Light 10h 59m
Length of Day
10h 04m
Waning Gibbous, 86% of the Moon is Illuminated
Dec 2
Waning Gibbous
Dec 6
Last Quarter
Dec 13
New
Dec 20
First Quarter
Dec 28
Full

Hourly Weather History & Observations

Time (EST) Temp. Dew Point Humidity Pressure Visibility Wind Dir Wind Speed Gust Speed Precip Events Conditions
12:53 AM 55.9 °F 48.9 °F 77% 30.35 in 10.0 mi Calm Calm - N/A   Mostly Cloudy
1:53 AM 57.0 °F 48.9 °F 74% 30.35 in 10.0 mi Calm Calm - N/A   Overcast
2:53 AM 57.0 °F 48.9 °F 74% 30.35 in 10.0 mi Calm Calm - N/A   Mostly Cloudy
3:53 AM 55.9 °F 48.9 °F 77% 30.34 in 10.0 mi Calm Calm - N/A   Overcast
4:53 AM 55.0 °F 48.9 °F 80% 30.33 in 10.0 mi ESE 3.5 mph - N/A   Scattered Clouds
5:53 AM 55.0 °F 48.9 °F 80% 30.34 in 10.0 mi East 3.5 mph - N/A   Mostly Cloudy
6:53 AM 55.9 °F 48.9 °F 77% 30.36 in 10.0 mi Calm Calm - N/A   Mostly Cloudy
7:53 AM 55.9 °F 48.9 °F 77% 30.37 in 10.0 mi East 3.5 mph - N/A   Scattered Clouds
8:53 AM 59.0 °F 50.0 °F 72% 30.38 in 10.0 mi ESE 3.5 mph - N/A   Scattered Clouds
9:53 AM 60.1 °F 51.1 °F 72% 30.39 in 10.0 mi SSE 4.6 mph - N/A   Overcast
10:53 AM 63.0 °F 53.1 °F 70% 30.37 in 10.0 mi SSE 4.6 mph - N/A   Clear
11:53 AM 68.0 °F 55.0 °F 63% 30.35 in 10.0 mi South 4.6 mph - N/A   Scattered Clouds
12:53 PM 70.0 °F 55.0 °F 59% 30.31 in 10.0 mi South 5.8 mph - N/A   Mostly Cloudy
1:53 PM 70.0 °F 55.0 °F 59% 30.29 in 10.0 mi Calm Calm - 0.00 in   Mostly Cloudy
2:53 PM 73.9 °F 54.0 °F 50% 30.27 in 10.0 mi SSW 8.1 mph - N/A   Mostly Cloudy
3:53 PM 72.0 °F 53.1 °F 51% 30.27 in 10.0 mi Variable 3.5 mph - N/A   Mostly Cloudy
4:53 PM 69.1 °F 55.0 °F 61% 30.27 in 10.0 mi Calm Calm - N/A   Clear
5:53 PM 64.9 °F 55.0 °F 70% 30.27 in 10.0 mi Calm Calm - N/A   Partly Cloudy
6:53 PM 64.9 °F 55.0 °F 70% 30.28 in 10.0 mi Calm Calm - N/A   Partly Cloudy
7:53 PM 62.1 °F 55.0 °F 78% 30.28 in 10.0 mi Calm Calm - N/A   Clear
8:53 PM 61.0 °F 54.0 °F 78% 30.29 in 10.0 mi Calm Calm - N/A   Clear
9:53 PM 60.1 °F 55.0 °F 83% 30.28 in 10.0 mi ESE 3.5 mph - N/A   Clear
10:53 PM 60.1 °F 55.0 °F 83% 30.29 in 10.0 mi ESE 4.6 mph - N/A   Clear
11:53 PM 59.0 °F 54.0 °F 83% 30.29 in 10.0 mi Calm Calm - N/A   Mostly Cloudy